RH
11 12 14 14 13 11 9 9 12 12 35 100 97 93 72 75 40 41 29 74 71 56 85 61 49 78 47 12 20 36 30 57 52 64 69 79 36 32 32 22 21 18 18 30
11 11 12 13 13 12 10 8 11 12 20 68 100 100 72 69 40 24 48 62 82 61 50 67 51 67 63 18 13 24 24 29 33 62 67 80 46 28 30 48 20 22 17 19
11 10 10 11 12 12 11 10 9 14 13 24 62 100 72 70 63 25 28 31 82 54 55 92 55 88 92 33 18 12 11 20 27 43 55 76 68 53 46 38 22 14 20 20
11 10 10 10 11 12 12 11 10 12 18 16 22 82 88 62 75 32 25 39 64 44 59 62 55 100 100 66 62 25 11 12 33 36 42 61 62 73 56 45 30 23 15 19
12 10 10 10 11 11 11 10 10 10 18 19 17 24 67 79 48 57 30 48 53 32 73 58 72 71 100 93 69 60 20 12 23 59 39 35 51 69 77 52 58 41 21 17
12 13 12 11 11 10 11 11 11 11 11 21 18 17 25 82 84 94 38 40 42 40 74 71 74 61 73 100 81 58 36 31 19 32 83 40 36 77 81 53 64 79 45 20
12 13 14 11 10 10 11 12 13 12 11 18 22 18 18 30 46 77 64 28 41 36 71 77 49 67 67 100 93 68 41 38 33 23 60 100 64 46 57 42 46 76 78 44
15 13 13 13 11 11 11 13 15 16 16 16 18 21 20 20 25 66 57 26 66 48 28 44 44 77 48 97 68 81 80 70 45 38 70 74 100 85 77 63 66 81 73 81
29 18 15 13 13 11 10 10 17 17 15 14 12 17 20 23 44 74 59 32 68 87 64 55 46 50 54 66 61 100 94 80 76 66 66 71 99 100 100 97 69 86 100 77
46 30 22 17 13 13 10 10 14 16 17 16 14 14 16 21 25 42 70 74 44 100 49 56 70 47 58 91 90 100 100 93 78 77 78 64 67 93 100 100 100 72 76 84
57 45 28 23 16 12 12 10 11 14 17 16 17 16 15 16 21 25 45 45 32 35 64 97 100 56 62 51 86 100 100 100 70 52 77 74 73 63 69 100 100 100 97 87
72 55 41 30 23 17 13 11 10 10 16 16 16 19 16 15 15 23 26 47 45 31 34 94 59 58 76 49 76 100 100 100 88 69 62 68 68 60 54 60 86 100 100 100
80 67 47 37 25 20 15 12 10 10 13 15 16 19 17 16 14 16 24 39 58 41 25 25 61 100 87 63 100 100 100 100 92 72 54 83 69 99 80 64 50 68 94 87
98 83 64 42 28 22 18 13 11 11 11 12 16 17 21 20 16 14 18 24 51 48 36 28 70 84 100 100 100 100 100 100 100 64 56 87 85 90 97 85 64 44 53 71
73 100 91 54 40 26 21 16 13 11 10 10 16 17 18 23 20 17 14 18 24 40 43 64 52 96 100 99 100 100 100 100 99 81 65 72 68 73 76 82 68 64 43 53
39 52 76 82 52 41 22 21 18 14 10 9 13 17 16 19 23 24 18 14 19 30 41 59 91 66 74 100 100 100 100 100 100 89 85 100 76 67 77 54 51 88 49 50
20 30 36 52 69 50 38 36 24 18 13 10 11 16 14 18 21 24 22 16 15 29 40 46 100 76 96 100 100 100 100 100 100 100 88 70 96 92 89 80 47 76 42 46
17 22 33 33 34 44 53 42 41 23 18 13 12 13 15 16 20 20 23 21 17 18 58 60 97 52 100 100 100 100 100 98 100 97 100 88 69 69 69 80 84 60 49 44
15 18 23 35 38 36 38 53 40 31 24 16 16 13 14 17 18 22 22 27 21 17 48 86 98 71 100 100 100 100 100 100 100 97 99 100 73 74 99 87 58 46 49 59
19 18 20 22 36 46 42 36 60 40 44 24 19 18 14 15 19 24 24 22 26 19 17 99 100 100 100 100 100 100 100 100 100 81 90 90 99 100 100 100 100 93 81 75
28 20 18 20 22 33 41 39 38 55 58 39 30 23 20 16 17 24 26 25 25 24 18 15 66 88 100 100 100 100 100 100 100 100 100 100 97 77 75 95 100 96 78 95
29 24 22 20 19 22 33 38 37 37 44 45 48 33 32 27 18 20 24 28 26 27 24 17 15 88 81 100 100 100 100 100 100 100 99 100 100 100 99 100 98 100 100 100
29 25 24 23 24 23 23 30 36 33 32 32 46 58 42 36 31 18 21 24 28 24 22 24 17 46 98 100 100 100 100 100 100 100 100 100 100 100 100 99 92 89 92 100
26 28 29 25 24 23 21 24 26 32 37 28 30 46 78 57 60 35 20 18 24 28 25 23 24 18 68 100 100 100 100 100 100 96 100 100 100 100 100 100 100 100 100 100
20 23 29 30 26 24 23 23 22 21 23 30 31 32 63 74 67 68 43 25 17 23 28 24 21 23 20 20 54 90 100 100 100 100 100 94 90 100 100 100 100 100 100 100
17 20 23 26 30 29 25 23 23 23 22 20 25 29 36 55 65 75 61 44 28 15 19 24 25 23 24 21 18 17 19 55 100 100 100 100 100 100 100 100 100 100 100 100
Wind_Speed
80 77 74 69 64 60 58 58 54 55 51 44 40 39 34 25 24 20 15 18 13 10 10 6 9 15 16 14 19 20 22 22 25 26 29 29 29 31 30 36 34 31 30 26
84 83 78 73 68 63 59 58 59 55 56 53 46 42 39 33 30 23 17 16 19 15 8 3 7 14 13 13 15 18 20 22 24 24 25 27 27 28 30 31 32 31 28 26
87 88 83 76 72 67 64 60 60 59 57 59 56 49 43 35 35 25 21 22 21 15 10 4 4 14 11 9 13 15 17 20 22 24 24 24 24 27 30 27 28 30 28 27
87 89 86 82 76 73 70 67 59 61 59 61 61 56 51 44 38 29 26 26 24 17 12 6 7 9 8 5 11 14 16 17 19 22 20 21 25 27 28 25 25 26 27 26
85 88 86 84 81 78 75 70 65 61 64 60 63 62 58 48 41 34 30 31 27 21 17 10 10 10 8 4 7 12 11 15 17 19 19 20 23 23 24 23 23 22 23 24
80 83 84 88 86 85 80 73 69 65 64 65 64 64 62 53 41 40 36 36 30 25 26 19 17 16 12 9 11 10 8 12 14 15 17 18 18 18 21 19 21 20 20 22
80 78 85 88 87 86 83 79 75 70 65 71 70 64 62 60 56 47 43 38 36 30 30 30 19 19 17 15 15 9 8 11 14 13 15 14 16 14 20 19 18 22 19 18
76 77 83 87 88 88 88 84 80 76 73 74 76 68 64 59 56 52 47 39 39 39 29 23 19 23 21 19 18 13 6 10 12 13 11 14 13 11 18 16 17 17 19 18
70 77 79 83 88 89 89 85 84 82 79 75 69 74 69 61 60 57 46 43 43 40 33 29 23 22 24 22 19 19 18 11 12 13 4 6 10 10 12 14 14 15 14 16
70 73 77 80 86 89 92 90 86 84 80 78 73 73 75 70 64 61 57 55 48 50 42 41 33 29 29 26 25 21 24 22 18 13 7 4 9 10 8 10 12 14 13 11
71 70 75 78 82 85 92 92 89 88 84 82 78 74 74 76 71 63 56 58 57 53 51 51 43 34 32 32 25 24 30 28 20 18 12 10 10 8 10 9 7 14 14 9
72 74 75 79 81 84 86 91 91 89 86 86 82 79 75 75 76 70 65 61 62 59 53 52 44 44 38 32 30 27 33 30 29 25 17 15 11 7 7 8 7 4 9 7
70 76 79 81 83 85 83 85 90 91 89 88 84 83 81 76 77 78 72 66 66 64 57 53 46 41 38 34 33 38 38 38 33 28 25 21 17 13 10 9 6 5 5 5
64 70 81 83 83 84 85 85 85 89 90 90 87 87 84 82 77 79 80 74 70 69 66 57 55 43 34 38 40 42 46 46 42 29 32 26 25 19 19 15 11 11 7 8
64 71 77 85 85 85 84 84 85 87 91 94 90 90 89 86 82 78 82 81 75 69 67 63 62 49 41 43 46 53 45 47 38 35 35 35 32 22 19 20 18 18 15 9
71 75 82 82 84 85 85 82 81 85 88 94 93 92 93 87 86 84 81 82 79 74 70 70 65 60 50 56 54 53 54 54 52 40 39 41 45 34 26 23 20 25 21 16
77 80 84 84 83 85 86 83 84 84 86 90 94 96 96 90 91 90 85 80 83 78 74 73 67 66 57 68 62 60 58 58 52 50 45 46 48 43 37 34 27 29 25 21
72 82 87 86 85 85 85 85 85 86 87 89 91 96 98 96 91 92 90 86 85 86 81 79 74 69 68 75 74 69 66 63 61 56 50 53 55 50 44 36 31 31 30 28
65 75 85 91 88 82 83 85 90 88 88 91 90 93 97 97 94 93 95 93 90 91 89 90 80 76 80 81 83 80 84 79 72 69 64 61 63 60 54 49 39 34 33 32
57 70 77 86 91 90 89 86 86 89 87 91 92 92 95 100 99 99 100 100 97 93 95 96 87 84 84 83 84 86 89 80 75 75 71 70 73 70 67 64 58 53 56 43
49 60 72 79 86 92 92 88 88 89 91 92 90 92 92 99 106 102 101 101 103 101 98 101 99 94 93 87 89 93 88 89 83 79 77 77 78 79 76 73 73 74 71 63
48 54 60 69 80 87 95 94 91 88 93 93 91 94 93 95 102 109 109 106 105 107 105 102 104 103 104 96 96 99 96 94 92 89 89 86 84 85 81 78 76 75 74 71
51 50 57 64 69 78 86 95 96 91 91 89 91 92 93 93 95 108 112 112 109 110 111 108 104 108 112 108 104 97 105 107 102 94 97 96 92 88 88 85 84 83 80 76
51 52 52 56 63 68 77 86 93 100 100 93 89 92 91 96 94 99 108 116 115 114 115 115 114 113 119 114 110 109 106 102 102 103 102 100 103 99 95 92 91 87 87 84
45 48 52 53 57 64 70 76 82 91 95 101 98 95 97 97 99 98 103 108 119 120 118 119 120 121 121 124 127 123 118 118 111 106 105 109 109 108 109 104 101 103 104 102
33 40 45 49 53 56 62 66 72 76 82 89 96 102 100 102 102 102 106 109 113 122 126 124 123 125 126 125 125 125 128 129 127 121 119 114 112 112 114 113 112 109 109 109
Wind_Direction
222 224 222 221 223 225 222 218 217 216 210 206 205 207 204 210 221 220 229 221 230 235 265 324 6 360 15 35 37 31 43 41 39 36 38 44 42 45 49 48 54 61 66 77
218 221 222 221 223 224 224 223 216 217 215 212 212 212 212 208 220 221 225 232 220 228 232 291 328 339 4 24 36 31 36 42 46 39 35 36 48 45 44 49 51 55 63 73
216 220 223 223 223 224 224 224 221 215 217 215 217 210 208 215 216 219 224 241 237 218 231 221 294 323 325 19 28 28 30 36 39 46 39 38 48 49 43 44 52 56 56 63
217 219 220 222 221 221 222 223 221 218 217 218 217 217 218 223 213 217 222 230 232 234 222 207 239 291 287 344 9 13 12 26 33 40 41 42 43 49 45 45 47 53 56 60
218 218 218 219 218 220 222 222 221 220 217 219 221 220 220 220 214 216 223 226 219 233 223 216 247 250 258 283 341 341 348 10 26 26 36 52 50 53 45 48 48 51 55 58
219 219 217 217 217 219 220 222 222 222 219 219 223 222 220 217 220 221 219 226 222 224 227 231 238 254 251 249 288 308 320 346 4 15 18 33 51 51 46 44 51 52 55 60
220 220 219 218 217 219 219 219 220 222 220 219 223 223 223 222 225 225 223 224 221 216 229 231 241 249 241 251 263 283 287 311 327 351 5 21 41 55 59 54 54 55 51 61
221 221 222 219 218 217 217 215 217 218 220 219 220 223 223 221 223 221 218 220 224 214 231 216 229 246 226 232 252 270 284 318 305 327 0 51 39 45 58 60 65 64 55 51
219 220 222 222 220 219 218 216 216 217 220 221 220 222 225 223 216 214 215 222 222 222 219 218 225 231 225 225 235 264 259 306 293 290 324 99 81 52 53 55 61 59 45 45
218 219 220 223 223 220 219 218 215 217 218 221 220 222 224 223 222 218 223 226 225 224 217 227 228 235 232 221 239 248 254 267 289 258 256 212 109 94 67 49 62 50 32 32
219 221 220 222 225 223 222 219 216 216 216 219 220 220 222 225 222 221 217 220 220 225 226 229 228 230 233 229 238 247 255 262 270 241 240 217 161 138 110 80 73 52 34 36
219 221 220 221 222 224 224 222 218 217 216 218 219 221 221 224 224 221 220 218 219 221 225 225 228 225 229 227 232 236 254 256 266 262 224 215 208 220 183 146 116 107 34 357
225 225 222 223 221 222 223 224 221 218 217 218 218 221 222 222 224 222 220 217 220 219 220 225 217 218 224 218 234 233 250 255 254 254 226 221 221 238 232 193 203 182 156 179
226 228 229 224 223 223 224 224 224 221 218 219 217 220 222 223 223 223 221 219 219 221 220 221 218 215 217 220 229 238 248 245 245 232 234 218 216 222 229 223 217 211 206 176
228 228 230 228 225 223 222 224 224 223 219 218 217 219 220 222 223 225 224 220 220 220 220 219 223 218 221 228 227 237 233 237 238 223 233 235 229 217 223 221 230 223 220 247
232 231 230 229 227 225 223 221 222 225 222 219 218 219 221 220 222 223 225 224 220 219 221 217 222 224 219 220 226 222 228 235 231 230 229 241 242 232 233 230 234 227 237 244
229 227 230 229 228 226 224 222 221 221 224 222 219 220 221 220 222 223 224 224 222 218 219 214 220 220 212 220 219 213 217 218 221 224 223 235 238 239 230 229 232 225 238 249
226 222 224 226 227 227 227 224 223 220 221 223 220 220 220 221 222 224 224 224 223 219 218 216 217 217 213 218 221 224 217 215 218 220 221 226 233 241 227 226 222 221 238 247
222 221 223 224 224 225 227 226 225 222 219 221 221 220 220 221 221 223 224 223 224 221 216 217 217 219 212 219 224 228 230 229 230 225 225 225 230 235 231 235 234 232 242 247
224 219 220 224 224 225 226 226 225 224 222 221 220 219 220 220 221 222 224 224 223 223 220 216 219 218 212 222 225 229 230 228 229 232 232 228 231 234 237 243 243 244 248 250
228 224 221 221 223 224 224 225 226 225 225 221 220 221 220 221 221 222 223 225 224 224 223 221 220 221 215 215 221 224 225 229 226 233 235 237 237 236 237 242 247 249 253 254
227 226 223 226 225 223 224 226 226 225 228 223 222 222 221 222 222 222 223 223 224 225 224 224 222 219 220 215 221 224 228 229 232 234 234 238 241 244 243 241 244 247 252 254
230 226 225 223 225 226 226 227 226 226 226 226 224 226 225 223 225 225 224 224 224 226 226 225 225 220 221 219 219 221 231 232 232 234 234 237 238 237 245 246 248 248 247 247
226 227 227 225 225 226 227 227 228 227 227 226 225 227 229 227 226 228 227 226 226 226 227 226 226 226 222 221 223 224 223 227 233 235 232 234 238 239 238 240 244 240 243 245
232 229 227 226 228 227 227 227 229 230 228 227 226 225 227 230 229 230 230 230 228 228 227 228 228 228 228 228 228 227 227 227 226 229 234 238 238 240 239 240 240 246 248 250
236 233 231 228 228 230 231 230 230 230 230 230 227 227 228 230 231 233 233 232 232 230 229 229 229 230 230 231 232 232 233 231 230 230 233 234 238 239 241 242 246 247 250 253